DeLand, FL

10:30 AM EDT on June 24, 2017 (GMT -0400)
De Land Municipal-Taylor

Weather History for KDED - November, 2012

Change the Weather History Date:

Saturday, November 17, 2012

  Actual Average Record
Temperature  
Mean Temperature 66 °F -  
Max Temperature 75 °F 78 °F 84 °F (2013)
Min Temperature 57 °F 52 °F 48 °F (2016)
Cooling Degree Days 1    
Growing Degree Days 16 (Base 50)    
Moisture  
Dew Point 60 °F    
Average Humidity 85    
Maximum Humidity 100    
Minimum Humidity 65    
Precipitation  
Precipitation 0.00 in - - ()
Sea Level Pressure  
Sea Level Pressure 30.17 in    
Wind  
Wind Speed 8 mph ()    
Max Wind Speed 17 mph    
Max Gust Speed 23 mph    
Visibility 6.2 miles    
Events      
Averages and records for this station are not official NWS values.
T = Trace of Precipitation, MM = Missing Value Source: Averaged Metar Reports

Daily Weather History Graph

Daily Weather History Graph

Search for Another Location

Airport or City:

Trip Planner

Search our weather history database for the weather conditions in past years. The results will help you decide how hot, cold, wet, or windy it might be!

Date:

Astronomy

Nov. 17, 2012 Rise Set
Actual Time 6:50 AM EST 5:29 PM EST
Civil Twilight 6:25 AM EST 5:54 PM EST
Nautical Twilight 5:56 AM EST 6:23 PM EST
Astronomical Twilight 5:28 AM EST 6:51 PM EST
Moon 10:33 AM EST (11/17) 9:36 PM EST (11/17)
Length of Visible Light 11h 29m
Length of Day
10h 39m
Waxing Crescent, 20% of the Moon is Illuminated
Nov 17
Waxing Crescent
Nov 20
First Quarter
Nov 28
Full
Dec 6
Last Quarter
Dec 13
New

Hourly Weather History & Observations

Time (EST) Temp. Dew Point Humidity Pressure Visibility Wind Dir Wind Speed Gust Speed Precip Events Conditions
12:15 AM 60.8 °F 57.2 °F 88% 30.16 in 6.0 mi NNW 6.9 mph - N/A   Mostly Cloudy
12:35 AM 60.8 °F 57.2 °F 88% 30.16 in 5.0 mi NNW 10.4 mph - N/A   Overcast
12:55 AM 60.8 °F 57.2 °F 88% 30.15 in 5.0 mi NNW 9.2 mph - N/A   Overcast
1:15 AM 60.8 °F 57.2 °F 88% 30.15 in 5.0 mi North 9.2 mph - N/A   Mostly Cloudy
1:35 AM 62.6 °F 57.2 °F 82% 30.14 in 5.0 mi North 9.2 mph - N/A   Mostly Cloudy
1:55 AM 62.6 °F 59.0 °F 88% 30.14 in 6.0 mi WNW 6.9 mph - N/A   Mostly Cloudy
2:15 AM 60.8 °F 57.2 °F 88% 30.13 in 5.0 mi NNW 6.9 mph - N/A   Overcast
2:35 AM 60.8 °F 57.2 °F 88% 30.14 in 5.0 mi WNW 5.8 mph - N/A   Overcast
2:55 AM 60.8 °F 57.2 °F 88% 30.14 in 5.0 mi NW 5.8 mph - N/A   Overcast
3:15 AM 60.8 °F 57.2 °F 88% 30.14 in 5.0 mi NW 5.8 mph - N/A   Overcast
3:35 AM 60.8 °F 57.2 °F 88% 30.14 in 5.0 mi NW 3.5 mph - N/A   Mostly Cloudy
3:55 AM 59.0 °F 57.2 °F 94% 30.14 in 5.0 mi NNW 5.8 mph - N/A   Partly Cloudy
4:15 AM 57.2 °F 55.4 °F 94% 30.14 in 5.0 mi WNW 5.8 mph - N/A   Clear
4:35 AM 57.2 °F 57.2 °F 100% 30.14 in 5.0 mi NW 8.1 mph - N/A   Mostly Cloudy
4:55 AM 59.0 °F 57.2 °F 94% 30.14 in 5.0 mi NW 6.9 mph - N/A   Mostly Cloudy
5:15 AM 59.0 °F 57.2 °F 94% 30.15 in 5.0 mi NNW 4.6 mph - N/A   Overcast
5:35 AM 59.0 °F 57.2 °F 94% 30.15 in 6.0 mi NW 5.8 mph - N/A   Mostly Cloudy
5:55 AM 59.0 °F 57.2 °F 94% 30.15 in 6.0 mi NW 5.8 mph - N/A   Mostly Cloudy
6:15 AM 59.0 °F 57.2 °F 94% 30.16 in 6.0 mi Calm Calm - N/A   Overcast
6:35 AM 59.0 °F 57.2 °F 94% 30.17 in 5.0 mi NNW 6.9 mph - N/A   Mostly Cloudy
6:55 AM 59.0 °F 57.2 °F 94% 30.16 in 4.0 mi Calm Calm - N/A   Mostly Cloudy
7:15 AM 57.2 °F 57.2 °F 100% 30.17 in 5.0 mi Calm Calm - N/A   Partly Cloudy
7:35 AM 59.0 °F 57.2 °F 94% 30.17 in 5.0 mi Calm Calm - N/A   Partly Cloudy
7:55 AM 60.8 °F 57.2 °F 88% 30.18 in 6.0 mi Calm Calm - N/A   Partly Cloudy
8:15 AM 60.8 °F 59.0 °F 94% 30.18 in 5.0 mi Calm Calm - N/A   Partly Cloudy
8:35 AM 62.6 °F 60.8 °F 94% 30.18 in 6.0 mi Calm Calm - N/A   Scattered Clouds
8:55 AM 66.2 °F 62.6 °F 88% 30.18 in 7.0 mi North 8.1 mph - N/A   Partly Cloudy
9:15 AM 68.0 °F 62.6 °F 83% 30.18 in 7.0 mi North 6.9 mph - N/A   Clear
9:35 AM 71.6 °F 64.4 °F 78% 30.18 in 8.0 mi NNE 10.4 mph - N/A   Clear
9:55 AM 71.6 °F 62.6 °F 73% 30.19 in 7.0 mi NNE 10.4 mph - N/A   Partly Cloudy
10:15 AM 73.4 °F 62.6 °F 69% 30.18 in 8.0 mi NNE 10.4 mph - N/A   Partly Cloudy
10:35 AM 73.4 °F 62.6 °F 69% 30.18 in 8.0 mi North 6.9 mph - N/A   Scattered Clouds
10:55 AM 73.4 °F 62.6 °F 69% 30.18 in 9.0 mi NNE 9.2 mph - N/A   Mostly Cloudy
11:15 AM 73.4 °F 62.6 °F 69% 30.17 in 8.0 mi NE 10.4 mph - N/A   Mostly Cloudy
11:35 AM 73.4 °F 62.6 °F 69% 30.16 in 9.0 mi NE 12.7 mph 19.6 mph N/A   Partly Cloudy
12:55 PM 73.4 °F 62.6 °F 69% 30.15 in 9.0 mi NNE 12.7 mph - N/A   Scattered Clouds
1:15 PM 73.4 °F 62.6 °F 69% 30.14 in 9.0 mi NNE 17.3 mph - N/A   Partly Cloudy
1:35 PM 75.2 °F 62.6 °F 65% 30.14 in 8.0 mi NNE 17.3 mph 23.0 mph N/A   Partly Cloudy
1:55 PM 73.4 °F 62.6 °F 69% 30.13 in 9.0 mi NNE 10.4 mph 19.6 mph N/A   Partly Cloudy
2:15 PM 73.4 °F 62.6 °F 69% 30.13 in 7.0 mi North 11.5 mph 20.7 mph N/A   Partly Cloudy
2:55 PM 71.6 °F 62.6 °F 73% 30.14 in 8.0 mi North 12.7 mph - N/A   Scattered Clouds
3:15 PM 71.6 °F 62.6 °F 73% 30.15 in 7.0 mi North 13.8 mph 18.4 mph N/A   Scattered Clouds
3:35 PM 69.8 °F 60.8 °F 73% 30.15 in 9.0 mi NE 11.5 mph - N/A   Overcast
3:55 PM 69.8 °F 59.0 °F 68% 30.15 in 10.0 mi North 10.4 mph - N/A   Mostly Cloudy
4:15 PM 69.8 °F 59.0 °F 68% 30.15 in 10.0 mi NNE 6.9 mph - N/A   Scattered Clouds
4:55 PM 68.0 °F 60.8 °F 78% 30.16 in 9.0 mi NNE 11.5 mph 16.1 mph N/A   Overcast
5:15 PM 66.2 °F 60.8 °F 83% 30.16 in 7.0 mi North 11.5 mph - N/A   Overcast
5:35 PM 66.2 °F 60.8 °F 83% 30.17 in 7.0 mi North 13.8 mph 20.7 mph N/A   Overcast
5:55 PM 66.2 °F 60.8 °F 83% 30.17 in 6.0 mi North 13.8 mph 20.7 mph N/A   Overcast
6:15 PM 64.4 °F 60.8 °F 88% 30.18 in 5.0 mi North 10.4 mph 19.6 mph N/A   Overcast
6:55 PM 64.4 °F 60.8 °F 88% 30.18 in 6.0 mi North 12.7 mph - N/A   Mostly Cloudy
7:15 PM 64.4 °F 60.8 °F 88% 30.19 in 6.0 mi North 13.8 mph - N/A   Mostly Cloudy
7:35 PM 64.4 °F 60.8 °F 88% 30.19 in 5.0 mi North 12.7 mph - N/A   Overcast
7:55 PM 64.4 °F 60.8 °F 88% 30.19 in 5.0 mi North 12.7 mph - N/A   Overcast
8:15 PM 64.4 °F 60.8 °F 88% 30.19 in 5.0 mi North 11.5 mph 17.3 mph N/A   Mostly Cloudy
8:35 PM 64.4 °F 60.8 °F 88% 30.20 in 5.0 mi North 13.8 mph - N/A   Partly Cloudy
8:55 PM 64.4 °F 60.8 °F 88% 30.20 in 6.0 mi North 9.2 mph - N/A   Scattered Clouds
9:15 PM 64.4 °F 62.6 °F 94% 30.20 in 5.0 mi North 6.9 mph - N/A   Mostly Cloudy
9:55 PM 64.4 °F 62.6 °F 94% 30.21 in 5.0 mi North 9.2 mph - N/A   Overcast
10:15 PM 64.4 °F 60.8 °F 88% 30.20 in 5.0 mi North 10.4 mph 16.1 mph N/A   Overcast
10:35 PM 64.4 °F 60.8 °F 88% 30.20 in 5.0 mi North 10.4 mph - N/A   Overcast
10:55 PM 64.4 °F 60.8 °F 88% 30.20 in 5.0 mi North 11.5 mph - N/A   Overcast
11:15 PM 64.4 °F 60.8 °F 88% 30.19 in 5.0 mi North 10.4 mph - N/A   Overcast
11:35 PM 64.4 °F 60.8 °F 88% 30.19 in 5.0 mi NNE 10.4 mph 16.1 mph N/A   Overcast
11:55 PM 62.6 °F 60.8 °F 94% 30.18 in 5.0 mi North 11.5 mph 16.1 mph N/A   Overcast